Regional Weather Roundup
Issued by NWS

Home | Current Version | Previous Version | Graphics & Text | Print | Product List | Glossary On
Versions: 1 2 3 4 5 6 7 8 9 10 11 12 13 14 15 16 17 18 19 20 21 22 23 24 25 26 27 28 29 30 31 32 33 34 35 36 37 38 39 40 41 42 43 44 45 46 47 48 49 50
000
ASUS45 KBOI 250110
RWRID

IDAHO REGIONAL WEATHER ROUNDUP
NATIONAL WEATHER SERVICE BOISE ID
700 PM MDT THU MAY 24 2018

NOTE: "FAIR" INDICATES FEW OR NO CLOUDS BELOW 12000 FEET
WITH NO SIGNIFICANT WEATHER AND/OR OBSTRUCTIONS TO VISIBILITY

IDZ012-014-250200-
SOUTHWEST IDAHO


CITY           SKY/WX    TMP DP  RH WIND       PRES   REMARKS
BOISE          SUNNY     83  47  28 N9        29.92F
CALDWELL       SUNNY     84  49  29 N3        29.90F
MOUNTAIN HOME  SUNNY     84  47  26 SE10      29.91F
$$

IDZ016-017-250200-
SOUTHCENTRAL IDAHO


CITY           SKY/WX    TMP DP  RH WIND       PRES   REMARKS
BURLEY         TSTM      67  51  56 SE13      30.04S
JEROME         MOSUNNY   77  44  30 CALM      30.01F
TWIN FALLS     PTSUNNY   69  49  48 S12G21    30.02S
$$

IDZ019>023-250200-
SOUTHEAST IDAHO


CITY           SKY/WX    TMP DP  RH WIND       PRES   REMARKS
IDAHO FALLS    MOSUNNY   72  48  42 S14       30.07S
POCATELLO      MOSUNNY   76  46  34 SW9       30.05F
REXBURG        PTSUNNY   69  51  52 E7        30.07S
$$

IDZ006-010-011-018-031-032-250200-
CENTRAL IDAHO MOUNTAINS


CITY           SKY/WX    TMP DP  RH WIND       PRES   REMARKS
MCCALL         LGT RAIN  59  55  87 N10       30.06S
HAILEY         MOSUNNY   72  46  40 S7        30.08F
STANLEY          N/A     66  42  41 VRB5      30.14S
SALMON         PTSUNNY   65  54  67 S7        30.05F
CHALLIS        MOSUNNY   69  50  50 N9        30.07R THUNDER
$$

IDZ002-004-006-007-026-250200-
NORTHERN IDAHO


CITY           SKY/WX    TMP DP  RH WIND       PRES   REMARKS
LEWISTON       PTSUNNY   76  60  57 SW9       29.94R
LOWELL           N/A     68  63  84 CALM      29.95R
COEUR D`ALENE  SUNNY     78  52  40 SW10      29.93S
MULLAN PASS    PTSUNNY   59  47  64 CALM      30.10R
$$



USA.gov is the U.S. government's official web portal to all federal, state and local government web resources and services.